Location: Hurstbourne Priors
(51.2000°N, 1.3667°W)
Time: 22:37:06
(UTC+00:00)

Transit 4A - Pass Details

Date: 28 April 2021
Orbit: 871 x 974 km, 66.8° (Epoch: 16 May)

Event Time Altitude Azimuth Distance (km) Brightness Sun altitude
Rises 00:22:38 0° 265° (W) 3,596 10.9 -24.5°
Reaches altitude 10° 00:25:38 10° 277° (W) 2,636 10.3 -24.4°
Maximum altitude 00:30:43 26° 333° (NNW) 1,710 9.8 -24.4°
Drops below altitude 10° 00:35:42 10° 30° (NNE) 2,583 11.1 -24.2°
Sets 00:38:37 0° 43° (NE) 3,510 11.8 -24.2°
